sat.trackr.live / text

‹ back to catalog

STARLINK-11503 [DTC]

NORAD 63142 · 2025-043L

PAYLOAD ACTIVE UNKNOWN

§ Identity

Operator
Country
US
Launch date
2025-03-03
Launch site
AFETR
Launch vehicle
Mass (kg)
RCS (m²)

Purposes: comms

External: N2YO · Heavens-Above · Gunter

§ Orbital elements

Epoch: 2026-05-25T00:47:55.506048Z

Period
91.67 min
Inclination
42.9988°
Eccentricity
0.0001167
Mean motion
15.70899918 rev/d
Perigee alt
355.5 km
Apogee alt
357.1 km
Semi-major
6,734.5 km
B*
1.3032e-3
RAAN
150.1245°
Arg perigee
274.0023°
Mean anomaly
86.0711°
Rev number
7,130

§ Raw data

STARLINK-11503 [DTC]1 63142U 25043L   26145.03328132  .00170674  00000+0  13032-2 0  99952 63142  42.9988 150.1245 0001167 274.0023  86.0711 15.70899918 71300

JSON: /api/v1/satellites/63142 · /tle

For live sub-satellite position, see the globe view (requires WebGL).

§ Visibility from observer

Set your observer location to see the next 7 days of passes ≥ 10°. The values pass through the URL so the page stays shareable.

No JS? Fill the form by hand. The geolocation button needs JavaScript.